IBE2KC LEGR-LEMD

Flight info

Callsign IBE2KC
Flight time N/A
Altitude 32000
Route VIBAS N865 MORAL
Aircraft A20N/M-SDE2E3FGHIRWXY/LB1

Departure

Time 2026-04-20 13:38
Airport F.G.L. Airport Granada-Jaén Airport (LEGR)

Arrival

Time N/A
Airport Adolfo Suárez Madrid–Barajas Airport (LEMD)
Time Latitude Longitude Altitude Speed Heading
2026-04-20 13:31 37.18568 -3.77555 1870 ft 0 kts 270°
2026-04-20 13:32 37.18568 -3.77572 1870 ft 4 kts 270°
2026-04-20 13:32 37.18572 -3.77615 1870 ft 6 kts 290°
2026-04-20 13:33 37.18615 -3.77618 1868 ft 9 kts
2026-04-20 13:33 37.18692 -3.77608 1863 ft 10 kts 38°
2026-04-20 13:33 37.18709 -3.77514 1866 ft 13 kts 90°
2026-04-20 13:33 37.18710 -3.77383 1868 ft 17 kts 90°
2026-04-20 13:34 37.18711 -3.77219 1866 ft 21 kts 90°
2026-04-20 13:34 37.18713 -3.77025 1865 ft 23 kts 90°
2026-04-20 13:34 37.18715 -3.76814 1863 ft 26 kts 89°
2026-04-20 13:34 37.18717 -3.76576 1860 ft 29 kts 90°
2026-04-20 13:35 37.18718 -3.76353 1857 ft 21 kts 90°
2026-04-20 13:35 37.18719 -3.76210 1853 ft 12 kts 88°
2026-04-20 13:35 37.18730 -3.76158 1852 ft 2 kts 56°
2026-04-20 13:35 37.18757 -3.76140 1851 ft 6 kts 354°
2026-04-20 13:36 37.18809 -3.76141 1851 ft 9 kts
2026-04-20 13:36 37.18863 -3.76148 1851 ft 7 kts 338°
2026-04-20 13:36 37.18876 -3.76161 1851 ft 0 kts 311°
2026-04-20 13:37 37.18877 -3.76163 1851 ft 1 kts 310°
2026-04-20 13:37 37.18884 -3.76192 1851 ft 5 kts 275°
2026-04-20 13:37 37.18885 -3.76255 1852 ft 15 kts 270°
2026-04-20 13:37 37.18883 -3.76709 1865 ft 87 kts 270°
2026-04-20 13:38 37.18875 -3.77717 1866 ft 142 kts 269°
2026-04-20 13:38 37.18865 -3.79050 2287 ft 150 kts 269°
2026-04-20 13:38 37.18863 -3.80336 2957 ft 151 kts 268°
2026-04-20 13:38 37.18860 -3.81735 3405 ft 174 kts 267°
2026-04-20 13:39 37.18874 -3.83380 3819 ft 205 kts 269°
2026-04-20 13:39 37.18919 -3.85314 4148 ft 240 kts 270°
2026-04-20 13:39 37.18976 -3.87546 4499 ft 274 kts 269°
2026-04-20 13:39 37.19021 -3.90024 5279 ft 285 kts 269°
2026-04-20 13:40 37.19003 -3.92520 6316 ft 289 kts 268°
2026-04-20 13:40 37.18983 -3.95093 7113 ft 302 kts 268°
2026-04-20 13:40 37.18953 -3.97789 7868 ft 315 kts 267°
2026-04-20 13:40 37.19076 -4.00527 8717 ft 324 kts 284°
2026-04-20 13:41 37.20194 -4.02988 9650 ft 332 kts 314°
2026-04-20 13:41 37.22190 -4.04473 10428 ft 343 kts 344°
2026-04-20 13:41 37.24600 -4.04628 11119 ft 355 kts
2026-04-20 13:41 37.27022 -4.03685 11471 ft 376 kts 19°
2026-04-20 13:42 37.29561 -4.02539 11668 ft 398 kts 19°
2026-04-20 13:42 37.34696 -4.00242 11686 ft 380 kts 19°
2026-04-20 13:42 37.37182 -3.99157 11653 ft 376 kts 19°
2026-04-20 13:43 37.39650 -3.98095 11720 ft 384 kts 19°
2026-04-20 13:43 37.42195 -3.96965 12371 ft 390 kts 19°
2026-04-20 13:43 37.44752 -3.95798 13249 ft 392 kts 19°
2026-04-20 13:43 37.47323 -3.94608 14032 ft 396 kts 20°
2026-04-20 13:44 37.49925 -3.93393 14730 ft 400 kts 19°
2026-04-20 13:44 37.52557 -3.92157 15445 ft 404 kts 20°
2026-04-20 13:44 37.55207 -3.90911 16122 ft 409 kts 20°
2026-04-20 13:44 37.57887 -3.89651 16807 ft 413 kts 19°
2026-04-20 13:45 37.60597 -3.88377 17499 ft 418 kts 19°
2026-04-20 13:45 37.63304 -3.87104 18170 ft 422 kts 19°
2026-04-20 13:45 37.66069 -3.85802 18768 ft 426 kts 19°
2026-04-20 13:45 37.68858 -3.84488 19367 ft 429 kts 19°
2026-04-20 13:46 37.71664 -3.83165 19951 ft 433 kts 19°
2026-04-20 13:46 37.74500 -3.81828 20554 ft 437 kts 19°
2026-04-20 13:46 37.77356 -3.80480 21131 ft 440 kts 19°
2026-04-20 13:46 37.80245 -3.79114 21709 ft 444 kts 20°
2026-04-20 13:47 37.83147 -3.77742 22243 ft 447 kts 20°
2026-04-20 13:47 37.86072 -3.76358 22808 ft 451 kts 20°
2026-04-20 13:47 37.89029 -3.74956 23347 ft 455 kts 20°
2026-04-20 13:47 37.92006 -3.73544 23815 ft 458 kts 20°
2026-04-20 13:48 37.94998 -3.72123 24276 ft 461 kts 19°
2026-04-20 13:48 37.98016 -3.70690 24697 ft 464 kts 19°
2026-04-20 13:48 38.01051 -3.69248 25144 ft 467 kts 19°
2026-04-20 13:48 38.04055 -3.67817 25572 ft 469 kts 19°
2026-04-20 13:49 38.07128 -3.66353 25969 ft 472 kts 19°
2026-04-20 13:49 38.10218 -3.64880 26362 ft 475 kts 19°
2026-04-20 13:49 38.13345 -3.63477 26762 ft 476 kts 15°
2026-04-20 13:49 38.16574 -3.62516 27126 ft 478 kts
2026-04-20 13:50 38.19884 -3.62032 27508 ft 479 kts
2026-04-20 13:50 38.23216 -3.61726 27854 ft 482 kts
2026-04-20 13:50 38.26568 -3.61398 28207 ft 484 kts
2026-04-20 13:50 38.29923 -3.61066 28541 ft 486 kts
2026-04-20 13:51 38.33303 -3.60733 28838 ft 488 kts
2026-04-20 13:51 38.36702 -3.60401 29087 ft 490 kts
2026-04-20 13:51 38.40075 -3.60073 29306 ft 491 kts
2026-04-20 13:51 38.43494 -3.59741 29497 ft 493 kts
2026-04-20 13:52 38.46924 -3.59408 29711 ft 493 kts
2026-04-20 13:52 38.50355 -3.59074 29933 ft 494 kts
2026-04-20 13:52 38.57195 -3.58408 29943 ft 493 kts
2026-04-20 13:53 38.64048 -3.57740 29937 ft 493 kts
2026-04-20 13:53 38.70850 -3.57075 29943 ft 493 kts
2026-04-20 13:54 38.77699 -3.56404 29938 ft 493 kts
2026-04-20 13:54 38.84546 -3.55732 29951 ft 493 kts
2026-04-20 13:55 38.91386 -3.55061 29950 ft 493 kts
2026-04-20 13:55 38.98162 -3.54919 29947 ft 487 kts 348°
2026-04-20 13:56 39.01431 -3.55945 29941 ft 482 kts 337°
2026-04-20 13:56 39.04439 -3.57763 29938 ft 476 kts 326°
2026-04-20 13:56 39.10034 -3.62307 29951 ft 475 kts 324°
2026-04-20 13:57 39.15636 -3.66848 29939 ft 475 kts 324°
2026-04-20 13:57 39.21234 -3.71391 29950 ft 476 kts 324°
2026-04-20 13:58 39.26806 -3.75922 29954 ft 476 kts 324°
2026-04-20 13:58 39.32422 -3.80498 29953 ft 477 kts 324°
2026-04-20 13:59 39.38041 -3.85086 29943 ft 478 kts 324°
2026-04-20 13:59 39.43657 -3.89680 29971 ft 477 kts 324°
2026-04-20 14:00 39.49199 -3.94223 29949 ft 477 kts 324°
2026-04-20 14:00 39.54836 -3.98854 29951 ft 477 kts 324°
2026-04-20 14:01 39.60630 -4.03096 29950 ft 482 kts 336°
2026-04-20 14:01 39.63899 -4.04237 29954 ft 489 kts 348°
2026-04-20 14:01 39.67261 -4.04521 29953 ft 494 kts 359°
2026-04-20 14:02 39.70680 -4.03941 29951 ft 499 kts 11°
2026-04-20 14:02 39.73985 -4.02496 29949 ft 503 kts 22°
2026-04-20 14:02 39.77037 -4.00234 29948 ft 506 kts 34°
2026-04-20 14:02 39.79708 -3.97246 29946 ft 508 kts 45°
2026-04-20 14:03 39.84326 -3.90253 29950 ft 509 kts 48°
2026-04-20 14:03 39.89082 -3.83417 29955 ft 509 kts 45°
2026-04-20 14:04 39.94004 -3.76785 29947 ft 508 kts 44°
2026-04-20 14:04 39.98949 -3.70197 29941 ft 507 kts 44°
2026-04-20 14:05 40.01364 -3.66973 29473 ft 499 kts 45°
2026-04-20 14:05 40.03783 -3.63739 28548 ft 494 kts 45°
2026-04-20 14:05 40.06163 -3.60551 27587 ft 486 kts 45°
2026-04-20 14:05 40.08517 -3.57396 26622 ft 478 kts 45°
2026-04-20 14:06 40.10817 -3.54308 25676 ft 470 kts 45°
2026-04-20 14:06 40.13071 -3.51279 24769 ft 462 kts 45°
2026-04-20 14:06 40.15298 -3.48284 23883 ft 454 kts 45°
2026-04-20 14:06 40.17513 -3.45385 22903 ft 447 kts 41°
2026-04-20 14:07 40.19829 -3.42729 21900 ft 439 kts 38°
2026-04-20 14:07 40.22271 -3.40455 20921 ft 432 kts 31°
2026-04-20 14:07 40.24873 -3.38569 19970 ft 424 kts 23°
2026-04-20 14:07 40.27642 -3.37404 19029 ft 415 kts 10°
2026-04-20 14:08 40.30511 -3.37184 16059 ft 425 kts 350°
2026-04-20 14:08 40.33123 -3.38186 13749 ft 365 kts 332°
2026-04-20 14:08 40.34989 -3.40091 11691 ft 320 kts 317°
2026-04-20 14:08 40.36600 -3.41894 9970 ft 291 kts 315°
2026-04-20 14:09 40.37949 -3.43669 8279 ft 261 kts 311°
2026-04-20 14:09 40.39168 -3.45307 6796 ft 243 kts 314°
2026-04-20 14:09 40.40491 -3.46626 5350 ft 234 kts 321°
2026-04-20 14:09 40.41749 -3.47939 4055 ft 229 kts 319°
2026-04-20 14:10 40.42978 -3.49156 3137 ft 211 kts 321°
2026-04-20 14:10 40.44069 -3.50261 2631 ft 185 kts 320°
2026-04-20 14:10 40.45064 -3.51295 2324 ft 184 kts 321°
2026-04-20 14:10 40.46064 -3.52314 2111 ft 168 kts 321°
2026-04-20 14:11 40.46924 -3.53183 1952 ft 148 kts 320°
2026-04-20 14:11 40.47684 -3.53958 1920 ft 129 kts 320°
2026-04-20 14:11 40.48234 -3.54529 1934 ft 88 kts 322°